This demonstration page uses our WeatherBlox Daily Observations layout. Learn more.

Left ArrowRight Arrow

40.92945, -100.16068

Hourly Observations for March 23, 2021

Temp ( °F °C ) Dew Point ( °F °C ) Humidity (%) Winds ( mph kmh ) Pressure ( in mb ) Visibility ( mi km ) Precip ( " mm )
12:15 am 00:15 Cloudy with Light Rain 36 2 34 1 93 93 N 14 22 29.83 1010 7 11 0.01 0.25
12:38 am 00:38 Cloudy with Drizzle 36 2 34 1 93 93 N 15 24 29.82 1010 7 11 0.01 0.25
12:56 am 00:56 Cloudy with Drizzle 36 2 34 1 93 93 N 15 24 29.82 1010 7 11 0.01 0.25
1:15 am 01:15 Cloudy with Light Rain 36 2 34 1 93 93 N 17 28 29.81 1009 10 16 0.01 0.25
1:55 am 01:55 Cloudy with Light Rain 36 2 36 2 100 100 N 18 30 29.79 1009 7 11 0.01 0.25
2:18 am 02:18 Cloudy with Light Rain 36 2 36 2 100 100 N 21 33 29.78 1008 5 8 0.01 0.25
2:35 am 02:35 Cloudy with Light Rain 36 2 36 2 100 100 N 21 33 29.77 1008 7 11 0.01 0.25
2:55 am 02:55 Cloudy with Light Rain 36 2 36 2 100 100 N 20 31 29.77 1008 5 8 0.02 0.51
3:15 am 03:15 Cloudy with Light Rain 37 3 36 2 93 93 N 18 30 29.74 1007 7 11 0.01 0.25
3:36 am 03:36 Windy with Snow Likely 37 3 36 2 93 93 N 20 31 29.73 1007 7 11 0.02 0.51
3:55 am 03:55 Cloudy with Light Rain 37 3 36 2 93 93 N 20 31 29.71 1006 7 11 0.03 0.76
4:15 am 04:15 Cloudy with Light Rain 37 3 36 2 93 93 N 21 33 29.71 1006 7 11 0.01 0.25
4:35 am 04:35 Cloudy with Light Rain 37 3 36 2.1 94 94 N 22 35 29.71 1006 7 11 0.02 0.51
4:55 am 04:55 Cloudy with Light Rain 38 3.1 36 2.2 94 94 N 18 30 29.71 1006 5 8 0.04 1.02
5:15 am 05:15 Cloudy with Rain 38 3.2 36 2.4 95 95 N 18 30 29.69 1006 5 8 0.02 0.51
5:35 am 05:35 Cloudy with Light Rain 38 3.5 37 2.5 93 93 N 23 37 29.69 1005 10 16 0.03 0.76
5:55 am 05:55 Cloudy with Light Rain 38 3.5 37 2.5 93 93 N 21 33 29.68 1005 7 11 0.04 1.02
6:15 am 06:15 Cloudy with Light Rain 38 3.6 37 2.6 93 93 N 18 30 29.68 1005 7 11 0.01 0.25
6:35 am 06:35 Cloudy with Light Rain 38 3.6 37 2.6 93 93 N 17 28 29.68 1005 7 11 0.02 0.51
6:55 am 06:55 Cloudy with Light Rain 39 3.7 37 2.7 93 93 N 20 31 29.69 1005 7 11 0.04 1.02
7:15 am 07:15 Cloudy with Light Rain 39 3.7 37 2.7 93 93 N 20 31 29.69 1005 7 11 0.01 0.25
7:35 am 07:35 Cloudy with Light Rain 39 3.9 37 2.8 93 93 N 18 30 29.69 1005 10 16 0.02 0.51
7:55 am 07:55 Cloudy with Light Rain 39 4 37 3 93 93 N 18 30 29.69 1005 7 11 0.04 1.02
8:15 am 08:15 Cloudy with Light Rain 39 4 37 3 93 93 N 21 33 29.69 1005 10 16 N/A
8:35 am 08:35 Cloudy with Light Rain 39 4.1 37 3 93 93 N 21 33 29.68 1005 10 16 0.01 0.25
8:55 am 08:55 Cloudy with Light Rain 40 4.2 38 3.1 93 93 N 21 33 29.68 1005 10 16 0.02 0.51
9:15 am 09:15 Cloudy with Light Rain 40 4.2 37 3 92 92 N 21 33 29.68 1005 10 16 N/A
9:35 am 09:35 Cloudy 40 4.2 37 3 92 92 N 21 33 29.68 1005 10 16 N/A
9:55 am 09:55 Cloudy with Light Rain 40 4.2 37 3 92 92 N 22 35 29.68 1005 10 16 N/A
10:15 am 10:15 Cloudy with Light Rain 39 4.1 37 3 93 93 N 23 37 29.68 1005 10 16 N/A
10:35 am 10:35 Cloudy with Light Rain 39 4 37 2.6 91 91 N 18 30 29.69 1005 10 16 0.01 0.25
10:55 am 10:55 Cloudy with Light Rain 39 4 37 2.6 91 91 N 17 28 29.69 1005 10 16 0.02 0.51
11:15 am 11:15 Cloudy with Light Rain 39 4.1 37 2.7 91 91 N 26 43 29.69 1005 10 16 N/A
11:35 am 11:35 Cloudy with Light Rain 40 4.5 37 3 90 90 N 23 37 29.68 1005 10 16 0.01 0.25
11:55 am 11:55 Cloudy with Light Rain 40 4.5 37 3 90 90 N 28 44 29.68 1005 10 16 0.02 0.51
12:15 pm 12:15 Cloudy with Light Rain 40 4.6 38 3.1 90 90 N 24 39 29.68 1005 7 11 N/A
12:35 pm 12:35 Cloudy with Light Rain 41 4.8 38 3.3 90 90 N 25 41 29.68 1005 10 16 N/A
12:55 pm 12:55 Cloudy with Light Rain 41 5 38 3.2 88 88 N 28 44 29.67 1005 10 16 N/A
1:15 pm 13:15 Cloudy with Drizzle 41 5 38 3.3 89 89 N 23 37 29.67 1005 10 16 N/A
1:35 pm 13:35 Cloudy with Light Rain 41 4.8 37 3 88 88 N 25 41 29.68 1005 10 16 0.01 0.25
1:55 pm 13:55 Cloudy 41 4.8 37 3 88 88 N 30 48 29.67 1005 10 16 0.01 0.25
2:15 pm 14:15 Cloudy with Drizzle 41 4.8 38 3.1 89 89 N 25 41 29.68 1005 10 16 N/A
2:35 pm 14:35 Cloudy with Light Rain 40 4.7 37 3 89 89 N 24 39 29.67 1005 10 16 N/A
2:55 pm 14:55 Cloudy with Light Rain 40 4.6 37 3 89 89 N 29 46 29.67 1005 7 11 0.01 0.25
3:15 pm 15:15 Cloudy with Light Rain 40 4.7 38 3.1 90 90 N 29 46 29.68 1005 7 11 N/A
3:35 pm 15:35 Cloudy with Drizzle 40 4.6 37 3 89 89 NNW 22 35 29.68 1005 10 16 0.01 0.25
3:55 pm 15:55 Cloudy with Light Rain 41 5 38 3.1 88 88 N 25 41 29.68 1005 10 16 0.02 0.51
4:15 pm 16:15 Cloudy with Light Rain 41 4.8 37 2.8 87 87 N 30 48 29.69 1005 10 16 N/A
4:35 pm 16:35 Cloudy with Light Rain 40 4.7 37 2.7 87 87 NNW 28 44 29.69 1005 10 16 0.01 0.25
4:55 pm 16:55 Cloudy with Light Rain 40 4.5 37 2.8 89 89 NNW 28 44 29.71 1006 10 16 0.02 0.51
5:15 pm 17:15 Cloudy with Light Rain 40 4.2 37 2.5 89 89 NNW 29 46 29.72 1006 7 11 0.01 0.25
5:35 pm 17:35 Cloudy with Light Rain 39 4.1 37 2.5 89 89 NNW 29 46 29.73 1007 10 16 0.02 0.51
5:55 pm 17:55 Cloudy with Light Rain 39 4.1 37 2.5 89 89 NNW 29 46 29.73 1007 10 16 0.02 0.51
6:15 pm 18:15 Cloudy with Drizzle 39 4.1 36 2.4 89 89 NNW 28 44 29.74 1007 10 16 N/A
6:35 pm 18:35 Cloudy with Drizzle 40 4.2 36 2.3 88 88 N 30 48 29.75 1007 10 16 N/A
6:55 pm 18:55 Cloudy with Drizzle 39 4.1 36 2.3 88 88 N 30 48 29.76 1008 10 16 0.01 0.25
7:15 pm 19:15 Cloudy with Light Rain 39 4 36 2 87 87 NNW 28 44 29.77 1008 10 16 N/A
7:35 pm 19:35 Cloudy with Light Rain 39 3.8 36 2 88 88 N 31 50 29.77 1008 10 16 N/A
7:55 pm 19:55 Cloudy with Drizzle 39 3.8 36 2 88 88 N 29 46 29.78 1008 10 16 N/A
8:15 pm 20:15 Cloudy with Drizzle 39 3.8 36 2 88 88 N 32 52 29.79 1009 10 16 N/A
8:35 pm 20:35 Cloudy 39 3.7 36 2 89 89 NNW 24 39 29.79 1009 10 16 N/A
8:55 pm 20:55 Cloudy 39 3.9 35 1.8 86 86 N 25 41 29.81 1009 10 16 0.01 0.25
9:15 pm 21:15 Cloudy 39 4 35 1.7 85 85 N 26 43 29.82 1010 10 16 N/A
9:35 pm 21:35 Cloudy 39 4 35 1.7 85 85 N 29 46 29.83 1010 10 16 N/A
9:55 pm 21:55 Cloudy 39 4 35 1.7 85 85 N 30 48 29.84 1010 10 16 N/A
10:15 pm 22:15 Cloudy 39 4 35 1.7 85 85 N 26 43 29.84 1010 10 16 N/A
10:35 pm 22:35 Cloudy 39 4 35 1.5 84 84 NNW 29 46 29.85 1011 10 16 N/A
10:55 pm 22:55 Cloudy 39 3.9 35 1.4 84 84 NNW 25 41 29.86 1011 10 16 N/A
11:15 pm 23:15 Cloudy with Drizzle 38 3.6 34 1.3 85 85 N 30 48 29.87 1012 10 16 N/A
11:35 pm 23:35 Cloudy with Drizzle 38 3.5 34 1.2 85 85 N 29 46 29.88 1012 10 16 N/A
11:55 pm 23:55 Cloudy with Drizzle 38 3.3 34 1.3 87 87 N 28 44 29.88 1012 10 16 N/A

Powered by AerisWeather